iso_date,epoch_date,Year,Hour,Min,DOY,POS_DOY,Lat,Lon,BP,Ts,Ta,has_bp,has_ts,has_ta,BuoyID,Buoy_Type,Buoy_Owner,Logistics,Hemisphere
2020-01-14T06:00:00Z,1578981600,2020,6,0,14.25,14.25,-63.856,-20.6,985.9,0.7,-999.0,yes,yes,no,300234066433230,BD2GI,AOML,SA_AGULHAS,South
2020-01-14T07:00:02Z,1578985203,2020,7,0,14.2917,14.2917,-63.855,-20.597,985.4,0.69,-999.0,yes,yes,no,300234066433230,BD2GI,AOML,SA_AGULHAS,South
2020-01-14T07:59:57Z,1578988797,2020,8,0,14.3333,14.3333,-63.855,-20.595,985.2,0.79,-999.0,yes,yes,no,300234066433230,BD2GI,AOML,SA_AGULHAS,South
2020-01-14T09:00:00Z,1578992400,2020,9,0,14.375,14.375,-63.852,-20.596,984.9,0.76,-999.0,yes,yes,no,300234066433230,BD2GI,AOML,SA_AGULHAS,South
2020-01-14T10:00:02Z,1578996003,2020,10,0,14.4167,14.4167,-63.852,-20.599,984.4,0.76,-999.0,yes,yes,no,300234066433230,BD2GI,AOML,SA_AGULHAS,South
2020-01-14T10:59:57Z,1578999597,2020,11,0,14.4583,14.4583,-63.852,-20.6,983.9,0.77,-999.0,yes,yes,no,300234066433230,BD2GI,AOML,SA_AGULHAS,South
2020-01-14T12:00:00Z,1579003200,2020,12,0,14.5,14.5,-63.852,-20.602,983.4,0.75,-999.0,yes,yes,no,300234066433230,BD2GI,AOML,SA_AGULHAS,South
2020-01-14T13:00:02Z,1579006803,2020,13,0,14.5417,14.5417,-63.854,-20.602,982.8,0.77,-999.0,yes,yes,no,300234066433230,BD2GI,AOML,SA_AGULHAS,South
2020-01-14T13:59:57Z,1579010397,2020,14,0,14.5833,14.5833,-63.854,-20.601,982.3,0.8,-999.0,yes,yes,no,300234066433230,BD2GI,AOML,SA_AGULHAS,South
2020-01-14T15:00:00Z,1579014000,2020,15,0,14.625,14.625,-63.854,-20.603,982.1,0.87,-999.0,yes,yes,no,300234066433230,BD2GI,AOML,SA_AGULHAS,South
2020-01-14T16:00:02Z,1579017603,2020,16,0,14.6667,14.6667,-63.856,-20.603,981.7,0.92,-999.0,yes,yes,no,300234066433230,BD2GI,AOML,SA_AGULHAS,South
2020-01-14T16:59:57Z,1579021197,2020,17,0,14.7083,14.7083,-63.857,-20.602,981.3,0.93,-999.0,yes,yes,no,300234066433230,BD2GI,AOML,SA_AGULHAS,South
2020-01-14T18:00:00Z,1579024800,2020,18,0,14.75,14.75,-63.859,-20.6,981.1,0.96,-999.0,yes,yes,no,300234066433230,BD2GI,AOML,SA_AGULHAS,South
2020-01-14T19:00:02Z,1579028403,2020,19,0,14.7917,14.7917,-63.86,-20.598,980.9,0.95,-999.0,yes,yes,no,300234066433230,BD2GI,AOML,SA_AGULHAS,South
2020-01-14T19:59:57Z,1579031997,2020,20,0,14.8333,14.8333,-63.86,-20.598,980.8,0.96,-999.0,yes,yes,no,300234066433230,BD2GI,AOML,SA_AGULHAS,South
2020-01-14T21:00:00Z,1579035600,2020,21,0,14.875,14.875,-63.861,-20.6,980.6,0.93,-999.0,yes,yes,no,300234066433230,BD2GI,AOML,SA_AGULHAS,South
2020-01-14T22:00:02Z,1579039203,2020,22,0,14.9167,14.9167,-63.861,-20.605,980.5,0.91,-999.0,yes,yes,no,300234066433230,BD2GI,AOML,SA_AGULHAS,South
2020-01-14T22:59:57Z,1579042797,2020,23,0,14.9583,14.9583,-63.861,-20.609,980.0,0.9,-999.0,yes,yes,no,300234066433230,BD2GI,AOML,SA_AGULHAS,South
2020-01-15T00:00:00Z,1579046400,2020,0,0,15.0,15.0,-63.863,-20.614,979.9,0.9,-999.0,yes,yes,no,300234066433230,BD2GI,AOML,SA_AGULHAS,South
2020-01-15T01:00:02Z,1579050003,2020,1,0,15.0417,15.0417,-63.864,-20.616,979.9,0.89,-999.0,yes,yes,no,300234066433230,BD2GI,AOML,SA_AGULHAS,South
2020-01-15T01:59:57Z,1579053597,2020,2,0,15.0833,15.0833,-63.864,-20.618,979.9,0.88,-999.0,yes,yes,no,300234066433230,BD2GI,AOML,SA_AGULHAS,South
2020-01-15T03:00:00Z,1579057200,2020,3,0,15.125,15.125,-63.864,-20.619,979.9,0.88,-999.0,yes,yes,no,300234066433230,BD2GI,AOML,SA_AGULHAS,South
2020-01-15T04:00:02Z,1579060803,2020,4,0,15.1667,15.1667,-63.864,-20.619,979.8,0.87,-999.0,yes,yes,no,300234066433230,BD2GI,AOML,SA_AGULHAS,South
2020-01-15T04:59:57Z,1579064397,2020,5,0,15.2083,15.2083,-63.864,-20.621,979.9,0.87,-999.0,yes,yes,no,300234066433230,BD2GI,AOML,SA_AGULHAS,South
2020-01-15T06:00:00Z,1579068000,2020,6,0,15.25,15.25,-63.865,-20.624,979.9,0.86,-999.0,yes,yes,no,300234066433230,BD2GI,AOML,SA_AGULHAS,South
2020-01-15T07:00:02Z,1579071603,2020,7,0,15.2917,15.2917,-63.865,-20.626,980.0,0.84,-999.0,yes,yes,no,300234066433230,BD2GI,AOML,SA_AGULHAS,South
2020-01-15T07:59:57Z,1579075197,2020,8,0,15.3333,15.3333,-63.866,-20.627,980.1,0.81,-999.0,yes,yes,no,300234066433230,BD2GI,AOML,SA_AGULHAS,South
2020-01-15T09:00:00Z,1579078800,2020,9,0,15.375,15.375,-63.866,-20.627,980.1,0.8,-999.0,yes,yes,no,300234066433230,BD2GI,AOML,SA_AGULHAS,South
2020-01-15T10:00:02Z,1579082403,2020,10,0,15.4167,15.4167,-63.865,-20.627,980.2,0.79,-999.0,yes,yes,no,300234066433230,BD2GI,AOML,SA_AGULHAS,South
2020-01-15T10:59:57Z,1579085997,2020,11,0,15.4583,15.4583,-63.863,-20.627,980.3,0.79,-999.0,yes,yes,no,300234066433230,BD2GI,AOML,SA_AGULHAS,South
2020-01-15T12:00:00Z,1579089600,2020,12,0,15.5,15.5,-63.862,-20.629,980.4,0.79,-999.0,yes,yes,no,300234066433230,BD2GI,AOML,SA_AGULHAS,South
2020-01-15T13:00:02Z,1579093203,2020,13,0,15.5417,15.5417,-63.859,-20.629,980.4,0.8,-999.0,yes,yes,no,300234066433230,BD2GI,AOML,SA_AGULHAS,South
2020-01-15T13:59:57Z,1579096797,2020,14,0,15.5833,15.5833,-63.856,-20.632,980.6,0.8,-999.0,yes,yes,no,300234066433230,BD2GI,AOML,SA_AGULHAS,South
2020-01-15T15:00:00Z,1579100400,2020,15,0,15.625,15.625,-63.855,-20.636,980.9,0.8,-999.0,yes,yes,no,300234066433230,BD2GI,AOML,SA_AGULHAS,South
2020-01-15T16:00:02Z,1579104003,2020,16,0,15.6667,15.6667,-63.854,-20.64,981.2,0.81,-999.0,yes,yes,no,300234066433230,BD2GI,AOML,SA_AGULHAS,South
2020-01-15T16:59:57Z,1579107597,2020,17,0,15.7083,15.7083,-63.854,-20.645,981.4,0.8,-999.0,yes,yes,no,300234066433230,BD2GI,AOML,SA_AGULHAS,South
2020-01-15T18:00:00Z,1579111200,2020,18,0,15.75,15.75,-63.854,-20.648,981.7,0.81,-999.0,yes,yes,no,300234066433230,BD2GI,AOML,SA_AGULHAS,South
2020-01-15T19:00:02Z,1579114803,2020,19,0,15.7917,15.7917,-63.855,-20.65,982.1,0.79,-999.0,yes,yes,no,300234066433230,BD2GI,AOML,SA_AGULHAS,South
2020-01-15T19:59:57Z,1579118397,2020,20,0,15.8333,15.8333,-63.855,-20.65,982.4,0.79,-999.0,yes,yes,no,300234066433230,BD2GI,AOML,SA_AGULHAS,South
2020-01-15T21:00:00Z,1579122000,2020,21,0,15.875,15.875,-63.854,-20.648,982.9,0.77,-999.0,yes,yes,no,300234066433230,BD2GI,AOML,SA_AGULHAS,South
2020-01-15T22:00:02Z,1579125603,2020,22,0,15.9167,15.9167,-63.852,-20.647,983.2,0.77,-999.0,yes,yes,no,300234066433230,BD2GI,AOML,SA_AGULHAS,South
2020-01-15T22:59:57Z,1579129197,2020,23,0,15.9583,15.9583,-63.85,-20.649,983.8,0.75,-999.0,yes,yes,no,300234066433230,BD2GI,AOML,SA_AGULHAS,South
2020-01-16T00:00:00Z,1579132800,2020,0,0,16.0,16.0,-63.848,-20.654,984.3,0.75,-999.0,yes,yes,no,300234066433230,BD2GI,AOML,SA_AGULHAS,South
2020-01-16T01:00:02Z,1579136403,2020,1,0,16.0417,16.0417,-63.844,-20.657,984.8,0.74,-999.0,yes,yes,no,300234066433230,BD2GI,AOML,SA_AGULHAS,South
2020-01-16T01:59:57Z,1579139997,2020,2,0,16.0833,16.0833,-63.841,-20.663,985.3,0.75,-999.0,yes,yes,no,300234066433230,BD2GI,AOML,SA_AGULHAS,South
2020-01-16T03:00:00Z,1579143600,2020,3,0,16.125,16.125,-63.839,-20.672,985.9,0.75,-999.0,yes,yes,no,300234066433230,BD2GI,AOML,SA_AGULHAS,South
2020-01-16T04:00:02Z,1579147203,2020,4,0,16.1667,16.1667,-63.838,-20.68,986.8,0.76,-999.0,yes,yes,no,300234066433230,BD2GI,AOML,SA_AGULHAS,South
2020-01-16T04:59:57Z,1579150797,2020,5,0,16.2083,16.2083,-63.838,-20.689,987.2,0.75,-999.0,yes,yes,no,300234066433230,BD2GI,AOML,SA_AGULHAS,South
2020-01-16T06:00:00Z,1579154400,2020,6,0,16.25,16.25,-63.839,-20.696,987.8,0.77,-999.0,yes,yes,no,300234066433230,BD2GI,AOML,SA_AGULHAS,South
2020-01-16T07:00:02Z,1579158003,2020,7,0,16.2917,16.2917,-63.84,-20.7,988.3,0.77,-999.0,yes,yes,no,300234066433230,BD2GI,AOML,SA_AGULHAS,South
2020-01-16T07:59:57Z,1579161597,2020,8,0,16.3333,16.3333,-63.841,-20.705,988.9,0.78,-999.0,yes,yes,no,300234066433230,BD2GI,AOML,SA_AGULHAS,South
2020-01-16T09:00:00Z,1579165200,2020,9,0,16.375,16.375,-63.843,-20.705,989.4,0.8,-999.0,yes,yes,no,300234066433230,BD2GI,AOML,SA_AGULHAS,South
2020-01-16T10:00:02Z,1579168803,2020,10,0,16.4167,16.4167,-63.844,-20.703,990.1,0.8,-999.0,yes,yes,no,300234066433230,BD2GI,AOML,SA_AGULHAS,South
2020-01-16T10:59:57Z,1579172397,2020,11,0,16.4583,16.4583,-63.843,-20.7,990.2,0.84,-999.0,yes,yes,no,300234066433230,BD2GI,AOML,SA_AGULHAS,South
2020-01-16T12:00:00Z,1579176000,2020,12,0,16.5,16.5,-63.84,-20.697,990.4,0.93,-999.0,yes,yes,no,300234066433230,BD2GI,AOML,SA_AGULHAS,South
2020-01-16T13:00:02Z,1579179603,2020,13,0,16.5417,16.5417,-63.836,-20.697,991.5,1.06,-999.0,yes,yes,no,300234066433230,BD2GI,AOML,SA_AGULHAS,South
2020-01-16T13:59:57Z,1579183197,2020,14,0,16.5833,16.5833,-63.832,-20.699,991.3,1.34,-999.0,yes,yes,no,300234066433230,BD2GI,AOML,SA_AGULHAS,South
2020-01-16T15:00:00Z,1579186800,2020,15,0,16.625,16.625,-63.828,-20.703,990.7,1.46,-999.0,yes,yes,no,300234066433230,BD2GI,AOML,SA_AGULHAS,South
2020-01-16T16:00:02Z,1579190403,2020,16,0,16.6667,16.6667,-63.826,-20.707,990.4,1.36,-999.0,yes,yes,no,300234066433230,BD2GI,AOML,SA_AGULHAS,South
2020-01-16T16:59:57Z,1579193997,2020,17,0,16.7083,16.7083,-63.823,-20.712,990.2,1.33,-999.0,yes,yes,no,300234066433230,BD2GI,AOML,SA_AGULHAS,South
2020-01-16T18:00:00Z,1579197600,2020,18,0,16.75,16.75,-63.822,-20.72,990.5,1.25,-999.0,yes,yes,no,300234066433230,BD2GI,AOML,SA_AGULHAS,South
2020-01-16T19:00:02Z,1579201203,2020,19,0,16.7917,16.7917,-63.822,-20.726,990.0,1.17,-999.0,yes,yes,no,300234066433230,BD2GI,AOML,SA_AGULHAS,South
2020-01-16T19:59:57Z,1579204797,2020,20,0,16.8333,16.8333,-63.825,-20.732,990.6,1.11,-999.0,yes,yes,no,300234066433230,BD2GI,AOML,SA_AGULHAS,South
2020-01-16T21:00:00Z,1579208400,2020,21,0,16.875,16.875,-63.826,-20.732,989.4,1.05,-999.0,yes,yes,no,300234066433230,BD2GI,AOML,SA_AGULHAS,South
2020-01-16T22:00:02Z,1579212003,2020,22,0,16.9167,16.9167,-63.828,-20.729,988.2,1.08,-999.0,yes,yes,no,300234066433230,BD2GI,AOML,SA_AGULHAS,South
2020-01-16T22:59:57Z,1579215597,2020,23,0,16.9583,16.9583,-63.831,-20.726,987.3,1.01,-999.0,yes,yes,no,300234066433230,BD2GI,AOML,SA_AGULHAS,South
2020-01-17T00:00:00Z,1579219200,2020,0,0,17.0,17.0,-63.832,-20.721,987.0,1.03,-999.0,yes,yes,no,300234066433230,BD2GI,AOML,SA_AGULHAS,South
2020-01-17T01:00:02Z,1579222803,2020,1,0,17.0417,17.0417,-63.832,-20.717,986.2,0.97,-999.0,yes,yes,no,300234066433230,BD2GI,AOML,SA_AGULHAS,South
2020-01-17T01:59:57Z,1579226397,2020,2,0,17.0833,17.0833,-63.832,-20.713,985.3,0.93,-999.0,yes,yes,no,300234066433230,BD2GI,AOML,SA_AGULHAS,South
2020-01-17T03:00:00Z,1579230000,2020,3,0,17.125,17.125,-63.832,-20.71,984.3,0.9,-999.0,yes,yes,no,300234066433230,BD2GI,AOML,SA_AGULHAS,South
2020-01-17T04:00:02Z,1579233603,2020,4,0,17.1667,17.1667,-63.832,-20.709,982.7,0.87,-999.0,yes,yes,no,300234066433230,BD2GI,AOML,SA_AGULHAS,South
2020-01-17T04:59:57Z,1579237197,2020,5,0,17.2083,17.2083,-63.832,-20.709,981.5,0.84,-999.0,yes,yes,no,300234066433230,BD2GI,AOML,SA_AGULHAS,South
2020-01-17T06:00:00Z,1579240800,2020,6,0,17.25,17.25,-63.835,-20.715,980.0,0.81,-999.0,yes,yes,no,300234066433230,BD2GI,AOML,SA_AGULHAS,South
2020-01-17T07:00:02Z,1579244403,2020,7,0,17.2917,17.2917,-63.837,-20.719,978.3,0.74,-999.0,yes,yes,no,300234066433230,BD2GI,AOML,SA_AGULHAS,South
2020-01-17T07:59:57Z,1579247997,2020,8,0,17.3333,17.3333,-63.842,-20.724,977.5,0.68,-999.0,yes,yes,no,300234066433230,BD2GI,AOML,SA_AGULHAS,South
2020-01-17T09:00:00Z,1579251600,2020,9,0,17.375,17.375,-63.85,-20.725,976.1,0.66,-999.0,yes,yes,no,300234066433230,BD2GI,AOML,SA_AGULHAS,South
2020-01-17T10:00:02Z,1579255203,2020,10,0,17.4167,17.4167,-63.857,-20.72,974.6,0.66,-999.0,yes,yes,no,300234066433230,BD2GI,AOML,SA_AGULHAS,South
2020-01-17T10:59:57Z,1579258797,2020,11,0,17.4583,17.4583,-63.863,-20.71,973.4,0.67,-999.0,yes,yes,no,300234066433230,BD2GI,AOML,SA_AGULHAS,South
2020-01-17T12:00:00Z,1579262400,2020,12,0,17.5,17.5,-63.867,-20.697,972.0,0.67,-999.0,yes,yes,no,300234066433230,BD2GI,AOML,SA_AGULHAS,South
2020-01-17T13:00:02Z,1579266003,2020,13,0,17.5417,17.5417,-63.867,-20.681,969.3,0.68,-999.0,yes,yes,no,300234066433230,BD2GI,AOML,SA_AGULHAS,South
2020-01-17T13:59:57Z,1579269597,2020,14,0,17.5833,17.5833,-63.863,-20.671,967.7,0.67,-999.0,yes,yes,no,300234066433230,BD2GI,AOML,SA_AGULHAS,South
2020-01-17T15:00:00Z,1579273200,2020,15,0,17.625,17.625,-63.857,-20.666,965.6,0.68,-999.0,yes,yes,no,300234066433230,BD2GI,AOML,SA_AGULHAS,South
2020-01-17T16:00:02Z,1579276803,2020,16,0,17.6667,17.6667,-63.852,-20.667,962.6,0.7,-999.0,yes,yes,no,300234066433230,BD2GI,AOML,SA_AGULHAS,South
2020-01-17T16:59:57Z,1579280397,2020,17,0,17.7083,17.7083,-63.848,-20.674,960.3,0.71,-999.0,yes,yes,no,300234066433230,BD2GI,AOML,SA_AGULHAS,South
2020-01-17T18:00:00Z,1579284000,2020,18,0,17.75,17.75,-63.846,-20.687,957.9,0.69,-999.0,yes,yes,no,300234066433230,BD2GI,AOML,SA_AGULHAS,South
2020-01-17T19:00:02Z,1579287603,2020,19,0,17.7917,17.7917,-63.849,-20.697,956.1,0.68,-999.0,yes,yes,no,300234066433230,BD2GI,AOML,SA_AGULHAS,South
2020-01-17T19:59:57Z,1579291197,2020,20,0,17.8333,17.8333,-63.856,-20.704,954.8,0.65,-999.0,yes,yes,no,300234066433230,BD2GI,AOML,SA_AGULHAS,South
2020-01-17T21:00:00Z,1579294800,2020,21,0,17.875,17.875,-63.864,-20.704,954.5,0.59,-999.0,yes,yes,no,300234066433230,BD2GI,AOML,SA_AGULHAS,South
2020-01-17T22:00:02Z,1579298403,2020,22,0,17.9167,17.9167,-63.873,-20.696,953.7,0.56,-999.0,yes,yes,no,300234066433230,BD2GI,AOML,SA_AGULHAS,South
2020-01-17T22:59:57Z,1579301997,2020,23,0,17.9583,17.9583,-63.882,-20.678,952.4,0.51,-999.0,yes,yes,no,300234066433230,BD2GI,AOML,SA_AGULHAS,South
2020-01-18T00:00:00Z,1579305600,2020,0,0,18.0,18.0,-63.888,-20.653,950.8,0.45,-999.0,yes,yes,no,300234066433230,BD2GI,AOML,SA_AGULHAS,South
2020-01-18T01:00:02Z,1579309203,2020,1,0,18.0417,18.0417,-63.891,-20.623,950.1,0.36,-999.0,yes,yes,no,300234066433230,BD2GI,AOML,SA_AGULHAS,South
2020-01-18T01:59:57Z,1579312797,2020,2,0,18.0833,18.0833,-63.892,-20.591,950.0,0.29,-999.0,yes,yes,no,300234066433230,BD2GI,AOML,SA_AGULHAS,South
2020-01-18T03:00:00Z,1579316400,2020,3,0,18.125,18.125,-63.891,-20.558,949.8,0.2,-999.0,yes,yes,no,300234066433230,BD2GI,AOML,SA_AGULHAS,South
2020-01-18T04:00:02Z,1579320003,2020,4,0,18.1667,18.1667,-63.887,-20.528,950.1,0.12,-999.0,yes,yes,no,300234066433230,BD2GI,AOML,SA_AGULHAS,South
2020-01-18T04:59:57Z,1579323597,2020,5,0,18.2083,18.2083,-63.882,-20.502,950.1,0.09,-999.0,yes,yes,no,300234066433230,BD2GI,AOML,SA_AGULHAS,South
2020-01-18T06:00:00Z,1579327200,2020,6,0,18.25,18.25,-63.876,-20.482,950.3,0.01,-999.0,yes,yes,no,300234066433230,BD2GI,AOML,SA_AGULHAS,South
2020-01-18T07:00:02Z,1579330803,2020,7,0,18.2917,18.2917,-63.871,-20.468,950.8,-0.04,-999.0,yes,yes,no,300234066433230,BD2GI,AOML,SA_AGULHAS,South
2020-01-18T07:59:57Z,1579334397,2020,8,0,18.3333,18.3333,-63.867,-20.458,951.4,-0.06,-999.0,yes,yes,no,300234066433230,BD2GI,AOML,SA_AGULHAS,South
2020-01-18T09:00:00Z,1579338000,2020,9,0,18.375,18.375,-63.865,-20.455,951.7,-0.07,-999.0,yes,yes,no,300234066433230,BD2GI,AOML,SA_AGULHAS,South
2020-01-18T10:00:02Z,1579341603,2020,10,0,18.4167,18.4167,-63.865,-20.453,952.2,-0.08,-999.0,yes,yes,no,300234066433230,BD2GI,AOML,SA_AGULHAS,South
2020-01-18T10:59:57Z,1579345197,2020,11,0,18.4583,18.4583,-63.867,-20.448,952.5,-0.07,-999.0,yes,yes,no,300234066433230,BD2GI,AOML,SA_AGULHAS,South
2020-01-18T12:00:00Z,1579348800,2020,12,0,18.5,18.5,-63.868,-20.444,952.8,-0.06,-999.0,yes,yes,no,300234066433230,BD2GI,AOML,SA_AGULHAS,South
2020-01-18T13:00:02Z,1579352403,2020,13,0,18.5417,18.5417,-63.868,-20.444,953.0,-0.07,-999.0,yes,yes,no,300234066433230,BD2GI,AOML,SA_AGULHAS,South
2020-01-18T13:59:57Z,1579355997,2020,14,0,18.5833,18.5833,-63.871,-20.435,953.4,-0.07,-999.0,yes,yes,no,300234066433230,BD2GI,AOML,SA_AGULHAS,South
2020-01-18T15:00:00Z,1579359600,2020,15,0,18.625,18.625,-63.874,-20.425,954.0,-0.06,-999.0,yes,yes,no,300234066433230,BD2GI,AOML,SA_AGULHAS,South
2020-01-18T16:00:02Z,1579363203,2020,16,0,18.6667,18.6667,-63.874,-20.41,954.7,-0.05,-999.0,yes,yes,no,300234066433230,BD2GI,AOML,SA_AGULHAS,South
2020-01-18T16:59:57Z,1579366797,2020,17,0,18.7083,18.7083,-63.873,-20.393,955.5,-0.04,-999.0,yes,yes,no,300234066433230,BD2GI,AOML,SA_AGULHAS,South
2020-01-18T18:00:00Z,1579370400,2020,18,0,18.75,18.75,-63.87,-20.379,956.7,-0.05,-999.0,yes,yes,no,300234066433230,BD2GI,AOML,SA_AGULHAS,South
2020-01-18T19:00:02Z,1579374003,2020,19,0,18.7917,18.7917,-63.864,-20.365,958.0,-0.05,-999.0,yes,yes,no,300234066433230,BD2GI,AOML,SA_AGULHAS,South
2020-01-18T19:59:57Z,1579377597,2020,20,0,18.8333,18.8333,-63.857,-20.357,959.1,-0.04,-999.0,yes,yes,no,300234066433230,BD2GI,AOML,SA_AGULHAS,South
2020-01-18T21:00:00Z,1579381200,2020,21,0,18.875,18.875,-63.851,-20.353,960.6,-0.05,-999.0,yes,yes,no,300234066433230,BD2GI,AOML,SA_AGULHAS,South
2020-01-18T22:00:02Z,1579384803,2020,22,0,18.9167,18.9167,-63.845,-20.351,962.1,-0.05,-999.0,yes,yes,no,300234066433230,BD2GI,AOML,SA_AGULHAS,South
2020-01-18T22:59:57Z,1579388397,2020,23,0,18.9583,18.9583,-63.841,-20.353,963.5,-0.06,-999.0,yes,yes,no,300234066433230,BD2GI,AOML,SA_AGULHAS,South
2020-01-19T00:00:00Z,1579392000,2020,0,0,19.0,19.0,-63.838,-20.356,964.9,-0.06,-999.0,yes,yes,no,300234066433230,BD2GI,AOML,SA_AGULHAS,South
2020-01-19T01:00:02Z,1579395603,2020,1,0,19.0417,19.0417,-63.837,-20.361,966.1,-0.07,-999.0,yes,yes,no,300234066433230,BD2GI,AOML,SA_AGULHAS,South
2020-01-19T01:59:57Z,1579399197,2020,2,0,19.0833,19.0833,-63.838,-20.363,967.2,-0.07,-999.0,yes,yes,no,300234066433230,BD2GI,AOML,SA_AGULHAS,South
2020-01-19T03:00:00Z,1579402800,2020,3,0,19.125,19.125,-63.839,-20.364,968.2,-0.08,-999.0,yes,yes,no,300234066433230,BD2GI,AOML,SA_AGULHAS,South
2020-01-19T04:00:02Z,1579406403,2020,4,0,19.1667,19.1667,-63.841,-20.356,969.0,-0.07,-999.0,yes,yes,no,300234066433230,BD2GI,AOML,SA_AGULHAS,South
2020-01-19T04:59:57Z,1579409997,2020,5,0,19.2083,19.2083,-63.842,-20.342,969.9,-0.08,-999.0,yes,yes,no,300234066433230,BD2GI,AOML,SA_AGULHAS,South
2020-01-19T06:00:00Z,1579413600,2020,6,0,19.25,19.25,-63.842,-20.327,970.9,-0.08,-999.0,yes,yes,no,300234066433230,BD2GI,AOML,SA_AGULHAS,South
2020-01-19T07:00:02Z,1579417203,2020,7,0,19.2917,19.2917,-63.839,-20.308,971.8,-0.08,-999.0,yes,yes,no,300234066433230,BD2GI,AOML,SA_AGULHAS,South
2020-01-19T07:59:57Z,1579420797,2020,8,0,19.3333,19.3333,-63.835,-20.293,972.9,-0.08,-999.0,yes,yes,no,300234066433230,BD2GI,AOML,SA_AGULHAS,South
2020-01-19T09:00:00Z,1579424400,2020,9,0,19.375,19.375,-63.828,-20.281,974.0,-0.07,-999.0,yes,yes,no,300234066433230,BD2GI,AOML,SA_AGULHAS,South
2020-01-19T10:00:02Z,1579428003,2020,10,0,19.4167,19.4167,-63.821,-20.274,974.9,-0.07,-999.0,yes,yes,no,300234066433230,BD2GI,AOML,SA_AGULHAS,South
2020-01-19T10:59:57Z,1579431597,2020,11,0,19.4583,19.4583,-63.816,-20.271,975.9,-0.06,-999.0,yes,yes,no,300234066433230,BD2GI,AOML,SA_AGULHAS,South
2020-01-19T12:00:00Z,1579435200,2020,12,0,19.5,19.5,-63.814,-20.269,976.9,-0.07,-999.0,yes,yes,no,300234066433230,BD2GI,AOML,SA_AGULHAS,South
2020-01-19T13:00:02Z,1579438803,2020,13,0,19.5417,19.5417,-63.811,-20.269,978.0,-0.04,-999.0,yes,yes,no,300234066433230,BD2GI,AOML,SA_AGULHAS,South
2020-01-19T13:59:57Z,1579442397,2020,14,0,19.5833,19.5833,-63.811,-20.269,979.2,-0.06,-999.0,yes,yes,no,300234066433230,BD2GI,AOML,SA_AGULHAS,South
2020-01-19T15:00:00Z,1579446000,2020,15,0,19.625,19.625,-63.81,-20.265,980.4,-0.05,-999.0,yes,yes,no,300234066433230,BD2GI,AOML,SA_AGULHAS,South
2020-01-19T16:00:02Z,1579449603,2020,16,0,19.6667,19.6667,-63.809,-20.264,981.5,-0.04,-999.0,yes,yes,no,300234066433230,BD2GI,AOML,SA_AGULHAS,South
2020-01-19T16:59:57Z,1579453197,2020,17,0,19.7083,19.7083,-63.809,-20.262,982.6,-0.02,-999.0,yes,yes,no,300234066433230,BD2GI,AOML,SA_AGULHAS,South
2020-01-19T18:00:00Z,1579456800,2020,18,0,19.75,19.75,-63.809,-20.259,983.4,-0.03,-999.0,yes,yes,no,300234066433230,BD2GI,AOML,SA_AGULHAS,South
2020-01-19T19:00:02Z,1579460403,2020,19,0,19.7917,19.7917,-63.81,-20.255,984.3,-0.01,-999.0,yes,yes,no,300234066433230,BD2GI,AOML,SA_AGULHAS,South
2020-01-19T19:59:57Z,1579463997,2020,20,0,19.8333,19.8333,-63.809,-20.247,985.0,-0.02,-999.0,yes,yes,no,300234066433230,BD2GI,AOML,SA_AGULHAS,South
2020-01-19T21:00:00Z,1579467600,2020,21,0,19.875,19.875,-63.806,-20.241,985.5,-0.03,-999.0,yes,yes,no,300234066433230,BD2GI,AOML,SA_AGULHAS,South
2020-01-19T22:00:02Z,1579471203,2020,22,0,19.9167,19.9167,-63.804,-20.239,985.9,-0.02,-999.0,yes,yes,no,300234066433230,BD2GI,AOML,SA_AGULHAS,South
2020-01-19T22:59:57Z,1579474797,2020,23,0,19.9583,19.9583,-63.802,-20.239,985.9,-0.03,-999.0,yes,yes,no,300234066433230,BD2GI,AOML,SA_AGULHAS,South
2020-01-20T00:00:00Z,1579478400,2020,0,0,20.0,20.0,-63.801,-20.239,985.7,-0.04,-999.0,yes,yes,no,300234066433230,BD2GI,AOML,SA_AGULHAS,South
2020-01-20T01:00:02Z,1579482003,2020,1,0,20.0417,20.0417,-63.8,-20.242,985.4,-0.03,-999.0,yes,yes,no,300234066433230,BD2GI,AOML,SA_AGULHAS,South
2020-01-20T01:59:57Z,1579485597,2020,2,0,20.0833,20.0833,-63.8,-20.246,985.1,-0.03,-999.0,yes,yes,no,300234066433230,BD2GI,AOML,SA_AGULHAS,South
2020-01-20T03:00:00Z,1579489200,2020,3,0,20.125,20.125,-63.8,-20.248,984.4,-0.03,-999.0,yes,yes,no,300234066433230,BD2GI,AOML,SA_AGULHAS,South
2020-01-20T04:00:02Z,1579492803,2020,4,0,20.1667,20.1667,-63.8,-20.252,983.7,-0.04,-999.0,yes,yes,no,300234066433230,BD2GI,AOML,SA_AGULHAS,South
2020-01-20T04:59:57Z,1579496397,2020,5,0,20.2083,20.2083,-63.801,-20.254,982.8,-0.04,-999.0,yes,yes,no,300234066433230,BD2GI,AOML,SA_AGULHAS,South
2020-01-20T06:00:00Z,1579500000,2020,6,0,20.25,20.25,-63.801,-20.254,982.2,-0.05,-999.0,yes,yes,no,300234066433230,BD2GI,AOML,SA_AGULHAS,South
2020-01-20T07:00:02Z,1579503603,2020,7,0,20.2917,20.2917,-63.803,-20.253,981.7,-0.05,-999.0,yes,yes,no,300234066433230,BD2GI,AOML,SA_AGULHAS,South
2020-01-20T07:59:57Z,1579507197,2020,8,0,20.3333,20.3333,-63.803,-20.249,981.3,-0.04,-999.0,yes,yes,no,300234066433230,BD2GI,AOML,SA_AGULHAS,South
2020-01-20T09:00:00Z,1579510800,2020,9,0,20.375,20.375,-63.802,-20.245,981.0,-0.02,-999.0,yes,yes,no,300234066433230,BD2GI,AOML,SA_AGULHAS,South
2020-01-20T10:00:02Z,1579514403,2020,10,0,20.4167,20.4167,-63.802,-20.241,980.8,0.01,-999.0,yes,yes,no,300234066433230,BD2GI,AOML,SA_AGULHAS,South
2020-01-20T10:59:57Z,1579517997,2020,11,0,20.4583,20.4583,-63.801,-20.237,980.7,0.04,-999.0,yes,yes,no,300234066433230,BD2GI,AOML,SA_AGULHAS,South
2020-01-20T12:00:00Z,1579521600,2020,12,0,20.5,20.5,-63.799,-20.237,980.5,0.08,-999.0,yes,yes,no,300234066433230,BD2GI,AOML,SA_AGULHAS,South
2020-01-20T13:00:02Z,1579525203,2020,13,0,20.5417,20.5417,-63.797,-20.235,980.5,0.12,-999.0,yes,yes,no,300234066433230,BD2GI,AOML,SA_AGULHAS,South
2020-01-20T13:59:57Z,1579528797,2020,14,0,20.5833,20.5833,-63.795,-20.237,980.6,0.12,-999.0,yes,yes,no,300234066433230,BD2GI,AOML,SA_AGULHAS,South
2020-01-20T15:00:00Z,1579532400,2020,15,0,20.625,20.625,-63.793,-20.242,981.0,0.12,-999.0,yes,yes,no,300234066433230,BD2GI,AOML,SA_AGULHAS,South
2020-01-20T16:00:02Z,1579536003,2020,16,0,20.6667,20.6667,-63.792,-20.246,981.4,0.09,-999.0,yes,yes,no,300234066433230,BD2GI,AOML,SA_AGULHAS,South
2020-01-20T16:59:57Z,1579539597,2020,17,0,20.7083,20.7083,-63.792,-20.25,982.0,0.08,-999.0,yes,yes,no,300234066433230,BD2GI,AOML,SA_AGULHAS,South
2020-01-20T18:00:00Z,1579543200,2020,18,0,20.75,20.75,-63.791,-20.256,982.7,0.07,-999.0,yes,yes,no,300234066433230,BD2GI,AOML,SA_AGULHAS,South
2020-01-20T19:00:02Z,1579546803,2020,19,0,20.7917,20.7917,-63.791,-20.259,983.6,0.06,-999.0,yes,yes,no,300234066433230,BD2GI,AOML,SA_AGULHAS,South
2020-01-20T19:59:57Z,1579550397,2020,20,0,20.8333,20.8333,-63.791,-20.261,984.3,0.09,-999.0,yes,yes,no,300234066433230,BD2GI,AOML,SA_AGULHAS,South
2020-01-20T21:00:00Z,1579554000,2020,21,0,20.875,20.875,-63.791,-20.262,985.1,0.08,-999.0,yes,yes,no,300234066433230,BD2GI,AOML,SA_AGULHAS,South
2020-01-20T22:00:02Z,1579557603,2020,22,0,20.9167,20.9167,-63.791,-20.262,986.1,0.05,-999.0,yes,yes,no,300234066433230,BD2GI,AOML,SA_AGULHAS,South
2020-01-20T22:59:57Z,1579561197,2020,23,0,20.9583,20.9583,-63.791,-20.259,987.0,0.05,-999.0,yes,yes,no,300234066433230,BD2GI,AOML,SA_AGULHAS,South
2020-01-21T00:00:00Z,1579564800,2020,0,0,21.0,21.0,-63.789,-20.255,987.8,0.04,-999.0,yes,yes,no,300234066433230,BD2GI,AOML,SA_AGULHAS,South
2020-01-21T01:00:02Z,1579568403,2020,1,0,21.0417,21.0417,-63.788,-20.253,988.4,0.03,-999.0,yes,yes,no,300234066433230,BD2GI,AOML,SA_AGULHAS,South